Location: Killam
(52.7910°N, 111.8608°W)
Time: 23:03:27
(UTC+00:00)

Vanguard 3 - Pass Details

Date: 19 February 2026
Orbit: 507 x 3205 km, 33.4° (Epoch: 11 March)

Event Time Altitude Azimuth Distance (km) Brightness Sun altitude
Rises 22:42:01 0° 218° (SW) 5,834 13.3 15.4°
Reaches altitude 10° 22:48:39 10° 198° (SSW) 4,172 12.0 14.7°
Maximum altitude 22:53:31 14° 171° (S) 3,307 10.8 14.2°
Drops below altitude 10° 22:57:26 10° 141° (SE) 3,184 10.3 13.7°
Sets 23:01:15 0° 117° (ESE) 3,695 10.3 13.3°
